Weather History for Lakeland Region, FL

Change the Weather History Date:

Friday, January 10, 2014

  Actual Average Record
Temperature  
Mean Temperature 72 °F -  
Max Temperature 78 °F 68 °F 82 °F (2013)
Min Temperature 66 °F 48 °F 26 °F (2010)
Cooling Degree Days 7    
Growing Degree Days 22 (Base 50)    
Moisture  
Dew Point 67 °F    
Average Humidity 92    
Maximum Humidity 100    
Minimum Humidity 65    
Precipitation  
Precipitation 0.00 in - - ()
Sea Level Pressure  
Sea Level Pressure 30.15 in    
Wind  
Wind Speed 5 mph (ESE)    
Max Wind Speed 9 mph    
Max Gust Speed -    
Visibility 9 miles    
Events      
Averages and records for this station are not official NWS values.
T = Trace of Precipitation, MM = Missing Value Source: NWS Daily Summary

Daily Weather History Graph

Daily Weather History Graph

Search for Another Location

Airport:

Trip Planner

Search our weather history database for the weather conditions in past years. The results will help you decide how hot, cold, wet, or windy it might be!

Date:

Astronomy

Jan. 10, 2014 Rise Set
Actual Time 7:20 AM EST 5:50 PM EST
Civil Twilight 6:55 AM EST 6:16 PM EST
Nautical Twilight 6:26 AM EST 6:45 PM EST
Astronomical Twilight 5:57 AM EST 7:13 PM EST
Moon 1:47 PM EST (1/10) 2:35 AM EST (1/10)
Length of Visible Light 11h 20m
Length of Day
10h 29m
Waxing Gibbous, 75% of the Moon is Illuminated
Jan 10
Waxing Gibbous
Jan 15
Full
Jan 24
Last Quarter
Jan 30
New
Feb 6
First Quarter

Hourly Weather History & Observations

Time (EST) Temp. Dew Point Humidity Pressure Visibility Wind Dir Wind Speed Gust Speed Precip Events Conditions
12:15 AM 68.0 °F 66.2 °F 94% 30.22 in 5.0 mi East 5.8 mph - N/A   Overcast
12:35 AM 68.0 °F 68.0 °F 100% 30.22 in 7.0 mi East 4.6 mph - N/A   Overcast
12:55 AM 68.0 °F 68.0 °F 100% 30.21 in 3.0 mi ENE 4.6 mph - N/A   Overcast
1:15 AM 68.0 °F 68.0 °F 100% 30.20 in 2.0 mi ENE 6.9 mph - N/A   Overcast
1:35 AM 68.0 °F 68.0 °F 100% 30.20 in 5.0 mi East 5.8 mph - N/A   Overcast
1:55 AM 68.0 °F 68.0 °F 100% 30.19 in 1.2 mi East 6.9 mph - N/A   Overcast
2:15 AM 68.0 °F 68.0 °F 100% 30.18 in 2.5 mi East 6.9 mph - N/A   Overcast
2:35 AM 68.0 °F 68.0 °F 100% 30.16 in 2.5 mi East 9.2 mph - N/A   Overcast
3:15 AM 68.0 °F 68.0 °F 100% 30.16 in 7.0 mi ENE 5.8 mph - N/A   Overcast
3:35 AM 68.0 °F 68.0 °F 100% 30.16 in 5.0 mi East 6.9 mph - N/A   Overcast
3:55 AM 68.0 °F 68.0 °F 100% 30.16 in 7.0 mi East 4.6 mph - N/A   Overcast
4:15 AM 68.0 °F 68.0 °F 100% 30.16 in 7.0 mi East 6.9 mph - N/A   Overcast
4:35 AM 68.0 °F 68.0 °F 100% 30.15 in 5.0 mi East 6.9 mph - N/A   Overcast
4:55 AM 68.0 °F 68.0 °F 100% 30.15 in 7.0 mi East 4.6 mph - N/A   Overcast
5:15 AM 68.0 °F 68.0 °F 100% 30.15 in 7.0 mi East 4.6 mph - N/A   Overcast
5:35 AM 68.0 °F 68.0 °F 100% 30.15 in 7.0 mi East 5.8 mph - N/A   Overcast
5:58 AM 68.0 °F 68.0 °F 100% 30.15 in 5.0 mi ESE 5.8 mph - N/A   Overcast
6:50 AM 68.0 °F 68.0 °F 100% 30.16 in 7.0 mi East 3.5 mph - N/A   Mostly Cloudy
7:58 AM 68.0 °F 68.0 °F 100% 30.17 in 7.0 mi ESE 4.6 mph - N/A   Mostly Cloudy
8:55 AM 68.0 °F 68.0 °F 100% 30.19 in 7.0 mi SE 5.8 mph - N/A   Mostly Cloudy
9:51 AM 69.8 °F 69.8 °F 100% 30.20 in 10.0 mi SE 4.6 mph - N/A   Mostly Cloudy
10:54 AM 73.4 °F 69.8 °F 88% 30.17 in 15.0 mi SE 9.2 mph - N/A   Scattered Clouds
11:50 AM 75.2 °F 66.2 °F 73% 30.15 in 15.0 mi South 8.1 mph - N/A   Mostly Cloudy
1:54 PM 78.8 °F 66.2 °F 65% 30.09 in 15.0 mi SSE 5.8 mph - N/A   Mostly Cloudy
2:50 PM 77.0 °F 66.2 °F 69% 30.09 in 15.0 mi SE 5.8 mph - N/A   Mostly Cloudy
3:50 PM 78.8 °F 66.2 °F 65% 30.08 in 15.0 mi SSE 6.9 mph - N/A   Mostly Cloudy
4:50 PM 78.8 °F 66.2 °F 65% 30.09 in 15.0 mi East 8.1 mph - N/A   Mostly Cloudy
5:50 PM 75.2 °F 66.2 °F 73% 30.08 in 15.0 mi Calm Calm - N/A   Mostly Cloudy
6:50 PM 71.6 °F 66.2 °F 83% 30.09 in 15.0 mi ESE 3.5 mph - N/A   Scattered Clouds
7:50 PM 71.6 °F 68.0 °F 88% 30.11 in 10.0 mi ESE 4.6 mph - N/A   Mostly Cloudy
8:50 PM 71.6 °F 66.2 °F 83% 30.12 in 10.0 mi Calm Calm - N/A   Mostly Cloudy
9:45 PM 68.0 °F 66.2 °F 94% 30.11 in 10.0 mi Calm Calm - N/A   Clear
9:55 PM 68.0 °F 66.2 °F 94% 30.12 in 10.0 mi Calm Calm - N/A   Clear
10:15 PM 68.0 °F 66.2 °F 94% 30.12 in 10.0 mi Calm Calm - N/A   Clear
10:35 PM 68.0 °F 66.2 °F 94% 30.12 in 10.0 mi Calm Calm - N/A   Scattered Clouds
10:55 PM 66.2 °F 64.4 °F 94% 30.12 in 10.0 mi Calm Calm - N/A   Mostly Cloudy
11:15 PM 68.0 °F 66.2 °F 94% 30.11 in 10.0 mi East 3.5 mph - N/A   Mostly Cloudy
11:35 PM 68.0 °F 66.2 °F 94% 30.10 in 10.0 mi ESE 5.8 mph - N/A   Mostly Cloudy
11:55 PM 69.8 °F 68.0 °F 94% 30.10 in 10.0 mi SE 4.6 mph - N/A   Overcast